"Pseudo-MPEC" for C0AK8R2

Created 2019 Mar 20 13:18:22 UT using Find_Orb

Click here for an explanation of pseudo-MPECs

 
 Astrometry: 
     C0AK8R2  C2019 03 15.30931 12 01 02.00 -18 10 15.7    ~3F8I 19.7 GVNEOCPG96
     C0AK8R2  C2019 03 15.31724 12 01 00.01 -18 09 29.2    ~3F8I 19.8 GVNEOCPG96
     C0AK8R2  C2019 03 15.32283 12 00 58.59 -18 08 55.8    ~3F8I 19.9 GVNEOCPG96
     C0AK8R2  C2019 03 15.32842 12 00 57.10 -18 08 21.9    ~3F8I 19.8 GVNEOCPG96
     C0AK8R2  C2019 03 15.41807 12 00 34.38 -17 59 27.3    ~3FAX 19.9 GVNEOCPG96
     C0AK8R2  C2019 03 15.41978 12 00 33.94 -17 59 17.2    ~3FAX 20.4 GVNEOCPG96
     C0AK8R2  C2019 03 15.42152 12 00 33.51 -17 59 06.8    ~3FAX 19.9 GVNEOCPG96
     C0AK8R2  C2019 03 15.42193 12 00 33.39 -17 59 04.6    ~3FAX 20.3 GVNEOCPG96
     C0AK8R2 KC2019 03 16g(G(=N9'20p#SB,s)oLi04QM\M%Astrometry?-F!.N?\BFnx1!aH21
     C0AK8R2 KC2019 03 16AQeG$N]A[*wC2%TN,'F.E-J\,'ytHP9J.;xF74*4W*7KF?WNe?sMH21
     C0AK8R2 KC2019 03 16s:lwbuHy/R3AI=Xt=w+k%?iHOs8UF,C/dW=(dPredacted;#3G5-H21
     C0AK8R2 IC2019 03 16)r@2t9$*_1`\@$TQA6;K9NLN5j:(Twy7osICfN'%9gaYk0fRL7lTL01
     C0AK8R2 KC2019 03 16bfKT5y#Xe+:ED[,W'HBmUH_!ul0dM*D'?w^RDlaBMnTpBKjaLFcmL01
     C0AK8R2 KC2019 03 16(j`fv#0hSpf-$])ZbMAclickis_kf31R46op'V\W3GQTp;NUD/=qL01
     C0AK8R2 KC2019 03 16c=jy2`ZBClUDlaRYmj4kS+b^l`'CK*`ht:U[NwX@-V2H.('UMoFbL01
     C0AK8R2 KC2019 03 17**XxKmMIKG0[4XC9xi.xJb`B/chS7L7-+6Yx=\$l_R$]I=[l%ZpgH21
     C0AK8R2 KC2019 03 17N.A\m1;ENQIFCcy!F[HCo?dj2here;[mDdU?FH*;nXlqYiZ2jZ4bH21
     C0AK8R2  C2019 03 17.20955 11 53 23.72 -15 02 49.3    ~3H5X 19.7 GVNEOCPI52
     C0AK8R2  C2019 03 17.20996 11 53 23.59 -15 02 47.0    ~3H5X 19.1 GVNEOCPI52
     C0AK8R2  C2019 03 17.21038 11 53 23.53 -15 02 45.2    ~3H5X 19.8 GVNEOCPI52
     C0AK8R2  C2019 03 17.24693 11 53 14.77 -14 59 10.7    ~3H6X 19.8 GVNEOCPG96
     C0AK8R2  C2019 03 17.25207 11 53 13.57 -14 58 40.2    ~3H6X 19.4 GVNEOCPG96
     C0AK8R2  C2019 03 17.25719 11 53 12.30 -14 58 10.6    ~3H6X 19.7 GVNEOCPG96
     C0AK8R2  C2019 03 17.26231 11 53 11.10 -14 57 40.7    ~3H6X 19.3 GVNEOCPG96
     C0AK8R2 KC2019 03 18Ugk5=Uj6U9AJaSpX2_mD)M2ECI*/$-F/5Cd%Y?rTi3._l@x_e[fwH21
     C0AK8R2 KC2019 03 18rk%x!nu?M.9Fc\3qv%kNV0+.6I.!BgsgFKhnbB.UBq7UB354bSDrH21
     C0AK8R2 KC2019 03 18]66K7;m+;UMJ0ouKrfor5`,Qm*#,k@G`]+PtVgiIs+YF/Cp*EuV5H21
     C0AK8R2  C2019 03 18.26815 11 49 19.78 -13 20 04.4    ~3I6m 19.2 GVNEOCPI52
     C0AK8R2  C2019 03 18.27067 11 49 19.14 -13 19 49.4    ~3I6m       VNEOCPI52
     C0AK8R2  C2019 03 18.27336 11 49 18.61 -13 19 34.1    ~3I6m 18.4 GVNEOCPI52
     C0AK8R2  C2019 03 18.37137511 48 55.81 -13 10 06.4    ~3I9X 19.4 GVNEOCPH01
     C0AK8R2  C2019 03 18.37554311 48 54.84 -13 09 42.5    ~3I9X 19.1 GVNEOCPH01
     C0AK8R2  C2019 03 18.38305811 48 53.12 -13 08 58.8    ~3I9X 19.2 GVNEOCPH01
     C0AK8R2  C2019 03 18.39183611 48 51.09 -13 08 08.2    ~3I9X 19.3 GVNEOCPH01
     C0AK8R2 KC2019 03 18hl6R!A(OQJ?TCJ3C31m=0hNy#j@`7rN)6d5k_rA6B`k?dXwi0nRBK61
     C0AK8R2 KC2019 03 18kDb[/QMnIn_E.PL.5#xyKRQH+a[YW9JV!,?-3gV[LVCto1cLcbwoK61
     C0AK8R2 KC2019 03 18gN^C)Db6WOm8#[XQ*C;V,#-UqS0MgC:explanation;'7E%y[\((K61

Station data:
(G96) Mt. Lemmon Survey  (N32.442754 W110.788720)  US/Arizona.  Observers B.
   M. Africano, E. J. Christensen, G. A. Farneth, D. C. Fuls, A. R. Gibbs, A.
   D. Grauer, H. Groeller, J. A. Johnson, R. A. Kowalski, S. M. Larson, G. J.
   Leonard, R. L. Seaman, F. C. Shelly. 1.5-m reflector + 10K CCD.
(H01) Magdalena Ridge Observatory, Socorro  (N33.984833 W107.189333)  US/New
   Mexico.  Observers W. H. Ryan, E. V. Ryan. Measurer W. H. Ryan. 2.4-m
   f/8.9 reflector + CCD.
(H21) Astronomical Research Observatory, Westfield  (N39.483057 W87.968270)
   US/Illinois. 0.76-m f/3.0 astrograph + CCD.
(I52) Steward Observatory, Mt. Lemmon Station  (N32.442547 W110.788920)
   US/Arizona.  Observers B. M. Africano, E. J. Christensen, G. A. Farneth,
   D. C. Fuls, A. R. Gibbs, A. D. Grauer, H. Groeller, J. A. Johnson, R. A.
   Kowalski, S. M. Larson, G. J. Leonard, R. L. Seaman, F. C. Shelly. 1.0-m
   reflector + CCD.
(K61) Rokycany Observatory  (N49.751403 E13.602600)  Czech Republic.
(L01) Višnjan Observatory, Tičan  (N45.290900 E13.749300)  Croatia.
   Observers K. Korlević, E. Pettarin. Measurer E. Pettarin. 1.0-m f/2.9
   reflector + CCD.

Orbital elements:  C0AK8R2
   Perihelion 2018 Dec 7.834485 +/- 0.35 TT = 20:01:39 (JD 2458460.334485)
Epoch 2019 Mar 18.0 TT = JDT 2458560.5   Earth MOID: 0.4056   Ma: 0.0148
M  59.35760549 +/- 2.4              (J2000 ecliptic)          AutoNEOCP
n   0.59259522 +/- 0.0265           Peri.  218.82064 +/- 1.4
a   1.40377429 +/- 0.0418           Node   181.07193 +/- 0.12
e   0.6578878 +/- 0.00125           Incl.   66.99208 +/- 1.8
P   1.66/607.49d           H 19.5   G  0.15   U 10.3  
q 0.48024818 +/- 0.012    Q 2.32730040 +/- 0.068
From 37 observations 2019 Mar. 15-18; mean residual 0".37
Residuals in arcseconds: 
190315 G96  .19-  .36+    190316 L01  .07-  .09+    190318 H21  .15-  .27+    
190315 G96  .26+  .37-    190316 L01  .16-  .41-    190318 I52  .21+  1.4-    
190315 G96  .32+  .27-    190317 H21  .07-  .09+    190318 I52  .61-  .92-    
190315 G96  .61-  .33+    190317 H21  .17-  .08-    190318 I52  .76+  1.2-    
190315 G96  .30+  .24+    190317 I52  .04-  .11+    190318 H01  .05-  .35+    
190315 G96  .20+  .13+    190317 I52  .50-  .01+    190318 H01  .19-  .15+    
190315 G96  .35+  .14+    190317 I52  .08+  .65-    190318 H01  .02-  .40+    
190315 G96  .12+  .11-    190317 G96  .15-  .02-    190318 H01  .15-  .24+    
190316 H21  .22-  .13-    190317 G96  .30+  .40+    190318 K61  .15+  .28+    
190316 H21  .02+  .26-    190317 G96  .33-  .03+    190318 K61  .10+  .16+    
190316 H21  .01+  .07+    190317 G96  .06+  .04-    190318 K61  .44+  .04+    
190316 L01  .05+  .09+    190318 H21  .10-  .69+    
190316 L01  .36+  .48+    190318 H21  .27-  .53+    

Ephemerides (geocentric):
Date (UTC) HH   RA              Dec         delta   r     elong  mag " sig PA
---- -- -- --  -------------   -----------  ------ ------ -----  --- ---- ---
2019 03 20 13  11 41 05.701   -09 45 04.79  .54559 1.5351 169.2 19.7 .729  81
2019 03 20 14  11 40 57.027   -09 41 14.03  .54588 1.5354 169.2 19.7 .752  82
2019 03 20 15  11 40 48.366   -09 37 23.49  .54618 1.5358 169.3 19.7 .775  83
2019 03 20 16  11 40 39.718   -09 33 33.16  .54648 1.5362 169.3 19.7 .798  84
2019 03 20 17  11 40 31.084   -09 29 43.05  .54679 1.5365 169.4 19.7 .822  85
2019 03 20 18  11 40 22.463   -09 25 53.16  .54709 1.5369 169.4 19.7 .847  86
2019 03 20 19  11 40 13.856   -09 22 03.48  .54739 1.5372 169.4 19.7 .872  86
2019 03 20 20  11 40 05.263   -09 18 14.03  .54770 1.5376 169.5 19.7 .898  87
2019 03 20 21  11 39 56.682   -09 14 24.79  .54800 1.5380 169.5 19.7 .924  88
2019 03 20 22  11 39 48.116   -09 10 35.78  .54831 1.5383 169.6 19.7 .950  89
2019 03 20 23  11 39 39.563   -09 06 46.99  .54862 1.5387 169.6 19.7 .978  89
2019 03 21 00  11 39 31.023   -09 02 58.42  .54893 1.5390 169.6 19.7 1.01  90
2019 03 21 01  11 39 22.497   -08 59 10.07  .54924 1.5394 169.7 19.7 1.03  91
2019 03 21 02  11 39 13.984   -08 55 21.95  .54955 1.5398 169.7 19.7 1.06  91
2019 03 21 03  11 39 05.485   -08 51 34.06  .54986 1.5401 169.7 19.7 1.09  92
2019 03 21 04  11 38 56.999   -08 47 46.39  .55018 1.5405 169.8 19.7 1.12  92
2019 03 21 05  11 38 48.526   -08 43 58.95  .55049 1.5408 169.8 19.7 1.15  93
2019 03 21 06  11 38 40.067   -08 40 11.73  .55081 1.5412 169.8 19.7 1.18  93
2019 03 21 07  11 38 31.622   -08 36 24.75  .55113 1.5415 169.8 19.7 1.22  94
2019 03 21 08  11 38 23.190   -08 32 37.99  .55145 1.5419 169.9 19.7 1.25  95
2019 03 21 09  11 38 14.771   -08 28 51.47  .55177 1.5423 169.9 19.7 1.28  95
2019 03 21 10  11 38 06.366   -08 25 05.18  .55209 1.5426 169.9 19.7 1.31  96
2019 03 21 11  11 37 57.975   -08 21 19.12  .55241 1.5430 170.0 19.7 1.35  96
2019 03 21 12  11 37 49.597   -08 17 33.29  .55273 1.5433 170.0 19.7 1.38  96
2019 03 21 13  11 37 41.232   -08 13 47.70  .55306 1.5437 170.0 19.7 1.42  97
2019 03 21 14  11 37 32.880   -08 10 02.34  .55338 1.5440 170.0 19.7 1.45  97
2019 03 21 15  11 37 24.542   -08 06 17.22  .55371 1.5444 170.0 19.7 1.49  98
2019 03 21 16  11 37 16.218   -08 02 32.33  .55404 1.5448 170.1 19.7 1.52  98
2019 03 21 17  11 37 07.907   -07 58 47.68  .55437 1.5451 170.1 19.7 1.56  99
2019 03 21 18  11 36 59.609   -07 55 03.27  .55470 1.5455 170.1 19.7 1.60  99
2019 03 21 19  11 36 51.325   -07 51 19.10  .55503 1.5458 170.1 19.7 1.64  99
2019 03 21 20  11 36 43.054   -07 47 35.17  .55536 1.5462 170.1 19.7 1.68 100
2019 03 21 21  11 36 34.797   -07 43 51.48  .55570 1.5465 170.1 19.7 1.71 100
2019 03 21 22  11 36 26.553   -07 40 08.03  .55603 1.5469 170.1 19.7 1.75 101
2019 03 21 23  11 36 18.322   -07 36 24.82  .55637 1.5473 170.1 19.7 1.79 101
2019 03 22 00  11 36 10.105   -07 32 41.86  .55671 1.5476 170.2 19.7 1.84 101
2019 03 22 01  11 36 01.901   -07 28 59.14  .55705 1.5480 170.2 19.7 1.88 102
2019 03 22 02  11 35 53.711   -07 25 16.66  .55738 1.5483 170.2 19.7 1.92 102
2019 03 22 03  11 35 45.534   -07 21 34.43  .55773 1.5487 170.2 19.7 1.96 102
2019 03 22 04  11 35 37.370   -07 17 52.44  .55807 1.5490 170.2 19.7 2.01 103
2019 03 22 05  11 35 29.220   -07 14 10.70  .55841 1.5494 170.2 19.7 2.05 103
2019 03 22 06  11 35 21.083   -07 10 29.21  .55875 1.5498 170.2 19.7 2.09 103
2019 03 22 07  11 35 12.959   -07 06 47.97  .55910 1.5501 170.2 19.7 2.14 104
2019 03 22 08  11 35 04.849   -07 03 06.97  .55945 1.5505 170.2 19.7 2.18 104
2019 03 22 09  11 34 56.752   -06 59 26.23  .55979 1.5508 170.2 19.7 2.23 104
2019 03 22 10  11 34 48.669   -06 55 45.73  .56014 1.5512 170.2 19.7 2.28 104
2019 03 22 11  11 34 40.599   -06 52 05.48  .56049 1.5515 170.2 19.7 2.32 105
2019 03 22 12  11 34 32.542   -06 48 25.49  .56084 1.5519 170.2 19.7 2.37 105